This demonstration page uses our WeatherBlox Daily Observations layout. Learn more.

Left ArrowRight Arrow

40.92501, -98.34201

Hourly Observations for October 7, 2022

Temp ( °F °C ) Dew Point ( °F °C ) Humidity (%) Winds ( mph kmh ) Pressure ( in mb ) Visibility ( mi km ) Precip ( " mm )
12:53 am 00:53 Partly Cloudy 43 6.1 31 -0.6 62 62 N 7 11 30.48 1032 10 16 0.00 0.00
1:53 am 01:53 Mostly Clear 45 7.2 32 0 60 60 N 9 15 30.48 1032 10 16 0.00 0.00
2:53 am 02:53 Cloudy 45 7.2 36 2.2 70 70 N 9 15 30.50 1033 10 16 0.01 0.13
3:53 am 03:53 Cloudy 45 7.2 34 1.1 65 65 N 8 13 30.51 1033 10 16 0.00 0.00
4:53 am 04:53 Cloudy 44 6.7 35 1.7 70 70 N 9 15 30.53 1034 10 16 0.00 0.00
5:53 am 05:53 Cloudy 43 6.1 35 1.7 73 73 N 9 15 30.54 1034 10 16 0.00 0.00
6:53 am 06:53 Cloudy 43 6.1 35 1.7 73 73 N 8 13 30.57 1035 10 16 0.00 0.00
7:53 am 07:53 Cloudy 43 6.1 32 0 65 65 NNE 10 17 30.57 1035 10 16 0.00 0.00
8:53 am 08:53 Cloudy 43 6.1 32 0 65 65 N 10 17 30.59 1036 10 16 0.00 0.00
9:53 am 09:53 Mostly Cloudy 44 6.7 31 -0.6 60 60 N 12 19 30.60 1036 10 16 0.00 0.00
10:53 am 10:53 Mostly Cloudy 47 8.3 31 -0.6 53 53 N 13 20 30.60 1036 10 16 0.00 0.00
11:53 am 11:53 Mostly Sunny 48 8.9 30 -1.1 49 49 N 9 15 30.61 1037 10 16 0.00 0.00
12:53 pm 12:53 Partly Cloudy 51 10.6 30 -1.1 44 44 VRB 3 6 30.59 1036 10 16 0.00 0.00
1:53 pm 13:53 Sunny 53 11.7 29 -1.7 39 39 N 10 17 30.56 1035 10 16 0.00 0.00
2:53 pm 14:53 Mostly Sunny 54 12.2 27 -2.8 35 35 VRB 6 9 30.54 1034 10 16 0.00 0.00
3:53 pm 15:53 Mostly Sunny 56 13.3 25 -3.9 30 30 N 12 19 30.52 1034 10 16 0.00 0.00
4:53 pm 16:53 Sunny 56 13.3 28 -2.2 34 34 VRB 6 9 30.51 1033 10 16 0.00 0.00
5:53 pm 17:53 Sunny 55 12.8 25 -3.9 31 31 NNW 10 17 30.50 1033 10 16 0.00 0.00
6:53 pm 18:53 Sunny 48 8.9 24 -4.4 39 39 N 7 11 30.50 1033 10 16 0.00 0.00
7:53 pm 19:53 Clear 45 7.2 24 -4.4 43 43 Calm 30.51 1033 10 16 0.00 0.00
8:53 pm 20:53 Clear 40 4.4 26 -3.3 57 57 WSW 3 6 30.53 1034 10 16 0.00 0.00
9:53 pm 21:53 Clear 39 3.9 26 -3.3 59 59 WSW 3 6 30.53 1034 10 16 0.00 0.00
10:53 pm 22:53 Clear 37 2.8 27 -2.8 67 67 Calm 30.55 1034 10 16 0.00 0.00
11:53 pm 23:53 Clear 37 2.8 28 -2.2 70 70 W 3 6 30.55 1034 10 16 0.00 0.00

Powered by AerisWeather